Portland Troutdale, OR

9:17 PM PDT on July 25, 2017 (GMT -0700)
Portland-Troutdale

Weather History for KTTD - October, 2012

Change the Weather History Date:

Saturday, October 27, 2012

  Actual Average Record
Temperature  
Mean Temperature 55 °F 51 °F  
Max Temperature 62 °F 59 °F 73 °F (2003)
Min Temperature 47 °F 42 °F 29 °F (1948)
Degree Days  
Heating Degree Days 10 14  
Month to date heating degree days 258 288  
Cooling Degree Days 0 0  
Month to date cooling degree days 0 0  
Growing Degree Days 4 (Base 50)    
Moisture  
Dew Point 50 °F    
Average Humidity 90    
Maximum Humidity 96    
Minimum Humidity 83    
Precipitation  
Precipitation 0.70 in 0.17 in 4.50 in (1994)
Month to date precipitation 4.93 3.19  
Year to date precipitation 33.95 31.76  
Snow  
Snow 0.00 in - - ()
Month to date snowfall 0.0  
Snow Depth 0.00 in    
Sea Level Pressure  
Sea Level Pressure 29.99 in    
Wind  
Wind Speed 6 mph (ESE)    
Max Wind Speed 18 mph    
Max Gust Speed 26 mph    
Visibility 8 miles    
Events Rain    
T = Trace of Precipitation, MM = Missing Value Source: NWS Daily Summary

Daily Weather History Graph

Daily Weather History Graph

Search for Another Location

Airport or City:

Trip Planner

Search our weather history database for the weather conditions in past years. The results will help you decide how hot, cold, wet, or windy it might be!

Date:

Astronomy

Oct. 27, 2012 Rise Set
Actual Time 7:43 AM PDT 6:03 PM PDT
Civil Twilight 7:12 AM PDT 6:33 PM PDT
Nautical Twilight 6:37 AM PDT 7:08 PM PDT
Astronomical Twilight 6:03 AM PDT 7:42 PM PDT
Moon 4:54 PM PDT (10/27) 5:39 AM PDT (10/27)
Length of Visible Light 11h 21m
Length of Day
10h 20m
Waxing Gibbous, 96% of the Moon is Illuminated
Oct 27
Waxing Gibbous
Oct 29
Full
Nov 6
Last Quarter
Nov 13
New
Nov 20
First Quarter

Hourly Weather History & Observations

Time (PDT) Temp. Dew Point Humidity Pressure Visibility Wind Dir Wind Speed Gust Speed Precip Events Conditions
12:53 AM 48.9 °F 46.0 °F 90% 30.13 in 10.0 mi Calm Calm - N/A   Overcast
1:53 AM 52.0 °F 46.0 °F 80% 30.13 in 10.0 mi SW 4.6 mph - N/A   Mostly Cloudy
2:53 AM 48.0 °F 45.0 °F 89% 30.13 in 10.0 mi Calm Calm - N/A   Clear
3:53 AM 46.9 °F 45.0 °F 93% 30.12 in 10.0 mi East 3.5 mph - N/A   Scattered Clouds
4:53 AM 48.9 °F 46.0 °F 90% 30.13 in 10.0 mi ESE 3.5 mph - N/A   Overcast
5:53 AM 48.9 °F 46.0 °F 90% 30.12 in 10.0 mi Calm Calm - N/A   Overcast
6:53 AM 48.9 °F 46.0 °F 90% 30.10 in 10.0 mi Calm Calm - 0.00 in Rain Light Rain
7:53 AM 50.0 °F 46.9 °F 89% 30.09 in 7.0 mi SE 3.5 mph - 0.04 in Rain Light Rain
8:53 AM 50.0 °F 46.9 °F 89% 30.06 in 5.0 mi Calm Calm - 0.06 in Rain Rain
9:53 AM 50.0 °F 46.9 °F 89% 30.05 in 3.0 mi SE 5.8 mph - 0.07 in Rain Rain
10:28 AM 51.8 °F 48.2 °F 88% 30.04 in 3.0 mi East 3.5 mph - 0.02 in Rain Light Rain
10:53 AM 51.1 °F 48.9 °F 92% 30.04 in 3.0 mi ESE 3.5 mph - 0.03 in Rain Light Rain
11:01 AM 51.8 °F 48.2 °F 88% 30.03 in 3.0 mi ESE 3.5 mph - 0.00 in Rain Light Rain
11:39 AM 51.8 °F 50.0 °F 94% 30.03 in 3.0 mi Calm Calm - 0.03 in Rain Rain
11:53 AM 52.0 °F 50.0 °F 93% 30.02 in 6.0 mi East 4.6 mph - 0.03 in Rain Light Rain
12:07 PM 51.8 °F 48.2 °F 88% 30.01 in 10.0 mi East 5.8 mph - 0.00 in   Overcast
12:43 PM 51.8 °F 50.0 °F 94% 30.01 in 10.0 mi East 3.5 mph - 0.01 in Rain Light Rain
12:53 PM 52.0 °F 48.9 °F 89% 30.00 in 3.0 mi East 9.2 mph - 0.02 in Rain Rain
1:03 PM 51.8 °F 48.2 °F 88% 30.01 in 2.0 mi ENE 5.8 mph - 0.02 in Rain Rain
1:25 PM 51.8 °F 50.0 °F 94% 29.99 in 4.0 mi East 9.2 mph - 0.06 in Rain Light Rain
1:33 PM 51.8 °F 50.0 °F 94% 29.98 in 2.5 mi East 9.2 mph - 0.07 in Rain Light Rain
1:41 PM 51.8 °F 48.2 °F 88% 29.98 in 8.0 mi East 9.2 mph - 0.07 in Rain Light Rain
1:53 PM 52.0 °F 48.9 °F 89% 29.98 in 10.0 mi East 9.2 mph - 0.07 in Rain Light Rain
2:16 PM 51.8 °F 48.2 °F 88% 29.96 in 8.0 mi East 10.4 mph - 0.01 in   Overcast
2:53 PM 52.0 °F 48.9 °F 89% 29.96 in 3.0 mi East 9.2 mph - 0.09 in Rain Heavy Rain
3:19 PM 51.8 °F 50.0 °F 94% 29.95 in 2.0 mi East 5.8 mph - 0.12 in Rain Light Rain
3:29 PM 51.8 °F 50.0 °F 94% 29.96 in 2.0 mi ENE 4.6 mph - 0.13 in Rain Light Rain
3:50 PM 51.8 °F 50.0 °F 94% 29.95 in 10.0 mi East 5.8 mph - 0.14 in   Overcast
3:53 PM 52.0 °F 50.0 °F 93% 29.94 in 10.0 mi ENE 6.9 mph - 0.14 in   Overcast
4:22 PM 51.8 °F 50.0 °F 94% 29.94 in 8.0 mi East 8.1 mph - 0.00 in Rain Light Rain
4:53 PM 52.0 °F 50.0 °F 93% 29.94 in 9.0 mi East 3.5 mph - 0.02 in Rain Light Rain
5:53 PM 53.1 °F 51.1 °F 93% 29.92 in 9.0 mi East 3.5 mph - 0.02 in Rain Light Rain
6:53 PM 54.0 °F 52.0 °F 93% 29.89 in 10.0 mi Variable 3.5 mph - 0.00 in   Overcast
7:00 PM 55.4 °F 53.6 °F 94% 29.89 in 10.0 mi Variable 5.8 mph - N/A   Overcast
7:50 PM 62.6 °F 55.4 °F 77% 29.88 in 9.0 mi SW 13.8 mph 20.7 mph 0.00 in Rain Light Rain
7:53 PM 62.1 °F 55.9 °F 80% 29.89 in 9.0 mi WSW 10.4 mph 20.7 mph 0.01 in Rain Light Rain
9:51 PM 62.6 °F 57.2 °F 82% 29.92 in 10.0 mi SW 13.8 mph 21.9 mph 0.01 in Rain Light Rain
9:53 PM 62.1 °F 57.0 °F 84% 29.92 in 10.0 mi SW 13.8 mph 21.9 mph 0.01 in Rain Light Rain
10:08 PM 60.8 °F 57.2 °F 88% 29.92 in 8.0 mi SW 10.4 mph 19.6 mph 0.00 in Rain Light Rain
10:33 PM 62.6 °F 57.2 °F 82% 29.93 in 10.0 mi SSW 16.1 mph 23.0 mph 0.00 in   Overcast
10:53 PM 61.0 °F 57.0 °F 87% 29.94 in 10.0 mi SSW 15.0 mph 20.7 mph 0.00 in   Overcast
11:25 PM 62.6 °F 57.2 °F 82% 29.94 in 10.0 mi SSW 12.7 mph 19.6 mph N/A   Overcast
11:37 PM 62.6 °F 57.2 °F 82% 29.94 in 10.0 mi SSW 12.7 mph 21.9 mph N/A   Overcast
11:53 PM 62.1 °F 57.0 °F 84% 29.95 in 10.0 mi SSW 11.5 mph - N/A   Overcast